Weather History for Massena, NY

Change the Weather History Date:

Sunday, November 27, 2011

  Actual Average Record
Temperature  
Mean Temperature 50 °F 31 °F  
Max Temperature 62 °F 38 °F 65 °F (1988)
Min Temperature 38 °F 23 °F -8 °F (1949)
Degree Days  
Heating Degree Days 15 34  
Month to date heating degree days 619 783  
Since 1 July heating degree days 1224 1664  
Moisture  
Dew Point 40 °F    
Average Humidity 67    
Maximum Humidity 85    
Minimum Humidity 48    
Precipitation  
Precipitation T in 0.09 in 0.82 in (1993)
Month to date precipitation 0.76 2.75  
Year to date precipitation 28.13 32.25  
Sea Level Pressure  
Sea Level Pressure 29.96 in    
Wind  
Wind Speed 8 mph (East)    
Max Wind Speed 28 mph    
Max Gust Speed 38 mph    
Visibility 10 miles    
Events Rain    
T = Trace of Precipitation, MM = Missing Value Source: NWS Daily Summary

Daily Weather History Graph

Daily Weather History Graph

Search for Another Location

Airport:

Trip Planner

Search our weather history database for the weather conditions in past years. The results will help you decide how hot, cold, wet, or windy it might be!

Date:

Astronomy

Nov. 27, 2011 Rise Set
Actual Time 7:12 AM EST 4:21 PM EST
Civil Twilight 6:39 AM EST 4:54 PM EST
Nautical Twilight 6:02 AM EST 5:30 PM EST
Astronomical Twilight 5:27 AM EST 6:05 PM EST
Moon 9:36 AM EST (11/27) 6:56 PM EST (11/27)
Length of Visible Light 10h 14m
Length of Day
9h 09m
Waxing Crescent, 8% of the Moon is Illuminated
Nov 27
Waxing Crescent
Dec 2
First Quarter
Dec 10
Full
Dec 17
Last Quarter
Dec 24
New

Hourly Weather History & Observations

Time (EST) Temp. Windchill Dew Point Humidity Pressure Visibility Wind Dir Wind Speed Gust Speed Precip Events Conditions
12:53 AM 39.9 °F 34.5 °F 34.0 °F 79% 30.10 in 10.0 mi East 8.1 mph - N/A   Overcast
1:53 AM 39.9 °F 34.5 °F 34.0 °F 79% 30.10 in 10.0 mi ENE 8.1 mph - N/A   Overcast
2:53 AM 39.9 °F 35.8 °F 34.0 °F 79% 30.09 in 10.0 mi ENE 5.8 mph - N/A   Overcast
3:53 AM 39.9 °F 33.9 °F 34.0 °F 79% 30.07 in 10.0 mi ENE 9.2 mph - 0.00 in Rain Light Rain
4:53 AM 39.0 °F 35.7 °F 35.1 °F 86% 30.06 in 10.0 mi East 4.6 mph - 0.00 in   Overcast
5:53 AM 37.9 °F 32.1 °F 34.0 °F 86% 30.04 in 10.0 mi ENE 8.1 mph - N/A   Partly Cloudy
6:53 AM 39.0 °F 34.8 °F 35.1 °F 86% 30.03 in 10.0 mi ENE 5.8 mph - N/A   Scattered Clouds
7:53 AM 39.2 °F 35.9 °F 35.6 °F 87% 30.02 in 10.0 mi NE 4.6 mph - N/A   Clear
8:53 AM 41.0 °F 35.8 °F 36.0 °F 82% 30.02 in 10.0 mi ENE 8.1 mph - N/A   Clear
9:53 AM 43.0 °F 39.5 °F 37.9 °F 82% 29.99 in 10.0 mi NE 5.8 mph - N/A   Partly Cloudy
10:53 AM 45.0 °F 41.8 °F 37.9 °F 76% 29.99 in 10.0 mi ENE 5.8 mph - N/A   Clear
11:53 AM 48.0 °F - 39.9 °F 74% 29.96 in 10.0 mi NE 4.6 mph - N/A   Overcast
12:53 PM 50.0 °F - 42.1 °F 74% 29.92 in 10.0 mi NE 4.6 mph - N/A   Partly Cloudy
1:53 PM 52.0 °F - 43.0 °F 71% 29.89 in 10.0 mi ENE 3.5 mph - N/A   Overcast
2:53 PM 54.0 °F - 43.0 °F 66% 29.89 in 10.0 mi Calm Calm - N/A   Overcast
3:53 PM 60.1 °F - 43.0 °F 53% 29.88 in 10.0 mi SSW 5.8 mph - N/A   Overcast
4:53 PM 59.0 °F - 43.0 °F 55% 29.87 in 10.0 mi South 4.6 mph - N/A   Overcast
5:53 PM 62.1 °F - 43.0 °F 50% 29.87 in 10.0 mi South 10.4 mph 17.3 mph N/A   Overcast
6:53 PM 61.0 °F - 46.0 °F 58% 29.87 in 10.0 mi South 10.4 mph - 0.00 in   Overcast
7:53 PM 61.0 °F - 46.0 °F 58% 29.87 in 10.0 mi South 8.1 mph - 0.00 in   Overcast
8:53 PM 61.0 °F - 44.1 °F 54% 29.86 in 10.0 mi SSW 13.8 mph 27.6 mph N/A   Overcast
9:53 PM 61.0 °F - 46.0 °F 58% 29.86 in 10.0 mi SSW 19.6 mph 23.0 mph N/A   Overcast
10:53 PM 60.1 °F - 48.0 °F 64% 29.86 in 10.0 mi SW 20.7 mph 34.5 mph N/A   Overcast
11:53 PM 57.9 °F - 50.0 °F 75% 29.86 in 10.0 mi SSW 23.0 mph 28.8 mph 0.00 in   Overcast